Time,TemperatureF,DewpointF,PressureIn,WindDirection,WindDirectionDegrees,WindSpeedMPH,WindSpeedGustMPH,Humidity,HourlyPrecipIn,Conditions,Clouds,dailyrainin,SoftwareType,DateUTC
2013-11-10 00:01:00,45.9,29.8,30.27,ENE,63,0.0,0.0,53,0.00,,---,0.00,VWS V14.00,2013-11-10 05:01:00,
2013-11-10 00:02:00,45.8,29.7,30.27,ENE,63,0.0,0.0,53,0.00,,---,0.00,VWS V14.00,2013-11-10 05:02:00,
2013-11-10 00:07:00,45.7,30.0,30.28,ENE,63,0.0,0.0,54,0.00,,---,0.00,VWS V14.00,2013-11-10 05:07:00,
2013-11-10 00:12:00,45.5,28.9,30.27,ENE,63,0.0,0.0,52,0.00,,---,0.00,VWS V14.00,2013-11-10 05:12:00,
2013-11-10 00:17:00,45.3,28.2,30.28,ENE,63,0.0,0.0,51,0.00,,---,0.00,VWS V14.00,2013-11-10 05:17:00,
2013-11-10 00:22:00,45.1,28.5,30.28,ENE,63,0.0,0.0,52,0.00,,---,0.00,VWS V14.00,2013-11-10 05:22:00,
2013-11-10 00:27:00,45.0,28.9,30.27,ENE,63,0.0,0.0,53,0.00,,---,0.00,VWS V14.00,2013-11-10 05:27:00,
2013-11-10 00:32:00,44.9,28.8,30.27,ENE,63,0.0,0.0,53,0.00,,---,0.00,VWS V14.00,2013-11-10 05:32:00,
2013-11-10 00:37:00,44.8,29.2,30.27,ENE,63,0.0,0.0,54,0.00,,---,0.00,VWS V14.00,2013-11-10 05:37:00,
2013-11-10 00:42:00,44.7,29.5,30.27,ENE,63,0.0,0.0,55,0.00,,---,0.00,VWS V14.00,2013-11-10 05:42:00,
2013-11-10 00:47:00,44.7,30.0,30.27,ENE,63,0.0,0.0,56,0.00,,---,0.00,VWS V14.00,2013-11-10 05:47:00,
2013-11-10 00:52:00,44.7,29.1,30.27,ENE,63,0.0,0.0,54,0.00,,---,0.00,VWS V14.00,2013-11-10 05:52:00,
2013-11-10 00:57:00,44.8,28.3,30.28,ENE,63,0.0,0.0,52,0.00,,---,0.00,VWS V14.00,2013-11-10 05:57:00,
2013-11-10 01:02:00,45.0,28.0,30.28,ENE,63,0.0,1.0,51,0.00,,---,0.00,VWS V14.00,2013-11-10 06:02:00,
2013-11-10 01:07:00,45.1,27.6,30.27,ENE,63,0.0,1.0,50,0.00,,---,0.00,VWS V14.00,2013-11-10 06:07:00,
2013-11-10 01:12:00,45.4,27.9,30.27,ENE,63,0.0,0.0,50,0.00,,---,0.00,VWS V14.00,2013-11-10 06:12:00,
2013-11-10 01:17:00,45.5,28.4,30.26,ENE,63,0.0,0.0,51,0.00,,---,0.00,VWS V14.00,2013-11-10 06:17:00,
2013-11-10 01:22:00,45.7,29.1,30.26,ENE,63,0.0,0.0,52,0.00,,---,0.00,VWS V14.00,2013-11-10 06:22:00,
2013-11-10 01:27:00,45.9,27.8,30.26,ENE,63,0.0,0.0,49,0.00,,---,0.00,VWS V14.00,2013-11-10 06:27:00,
2013-11-10 01:32:00,46.0,26.9,30.26,ENE,63,0.0,0.0,47,0.00,,---,0.00,VWS V14.00,2013-11-10 06:32:00,
2013-11-10 01:37:00,46.1,27.0,30.26,ENE,63,0.0,0.0,47,0.00,,---,0.00,VWS V14.00,2013-11-10 06:37:00,
2013-11-10 01:42:00,46.1,28.5,30.26,ENE,63,0.0,0.0,50,0.00,,---,0.00,VWS V14.00,2013-11-10 06:42:00,
2013-11-10 01:47:00,46.2,29.1,30.26,ENE,63,0.0,0.0,51,0.00,,---,0.00,VWS V14.00,2013-11-10 06:47:00,
2013-11-10 01:52:00,46.3,28.2,30.26,ENE,63,0.0,0.0,49,0.00,,---,0.00,VWS V14.00,2013-11-10 06:52:00,
2013-11-10 01:57:00,46.3,28.7,30.26,ENE,63,2.0,3.0,50,0.00,,---,0.00,VWS V14.00,2013-11-10 06:57:00,
2013-11-10 02:02:00,46.4,31.1,30.26,ENE,63,0.0,3.0,55,0.00,,---,0.00,VWS V14.00,2013-11-10 07:02:00,
2013-11-10 02:07:00,46.4,30.2,30.26,ENE,63,0.0,3.0,53,0.00,,---,0.00,VWS V14.00,2013-11-10 07:07:00,
2013-11-10 02:12:00,46.3,29.2,30.26,ENE,63,0.0,1.0,51,0.00,,---,0.00,VWS V14.00,2013-11-10 07:12:00,
2013-11-10 02:17:00,46.2,29.6,30.26,ENE,63,0.0,1.0,52,0.00,,---,0.00,VWS V14.00,2013-11-10 07:17:00,
2013-11-10 02:22:00,46.0,29.8,30.27,ENE,63,0.0,1.0,53,0.00,,---,0.00,VWS V14.00,2013-11-10 07:22:00,
2013-11-10 02:27:00,45.8,29.2,30.26,ENE,63,0.0,1.0,52,0.00,,---,0.00,VWS V14.00,2013-11-10 07:27:00,
2013-11-10 02:32:00,45.7,30.0,30.26,ENE,63,0.0,1.0,54,0.00,,---,0.00,VWS V14.00,2013-11-10 07:32:00,
2013-11-10 02:37:00,45.5,28.9,30.26,ENE,63,0.0,1.0,52,0.00,,---,0.00,VWS V14.00,2013-11-10 07:37:00,
2013-11-10 02:42:00,45.4,29.3,30.26,ENE,63,0.0,0.0,53,0.00,,---,0.00,VWS V14.00,2013-11-10 07:42:00,
2013-11-10 02:47:00,45.5,27.0,30.26,ENE,63,0.0,0.0,48,0.00,,---,0.00,VWS V14.00,2013-11-10 07:47:00,
2013-11-10 02:52:00,45.8,27.7,30.26,ENE,63,0.0,0.0,49,0.00,,---,0.00,VWS V14.00,2013-11-10 07:52:00,
2013-11-10 02:57:00,45.9,27.8,30.25,ENE,63,0.0,0.0,49,0.00,,---,0.00,VWS V14.00,2013-11-10 07:57:00,
2013-11-10 03:02:00,46.1,27.5,30.25,SSE,161,1.0,1.0,48,0.00,,---,0.00,VWS V14.00,2013-11-10 08:02:00,
2013-11-10 03:07:00,46.3,28.2,30.25,SSE,160,0.0,1.0,49,0.00,,---,0.00,VWS V14.00,2013-11-10 08:07:00,
2013-11-10 03:12:00,46.4,26.8,30.26,SSE,161,0.0,0.0,46,0.00,,---,0.00,VWS V14.00,2013-11-10 08:12:00,
2013-11-10 03:17:00,46.5,26.3,30.26,SSE,161,0.0,1.0,45,0.00,,---,0.00,VWS V14.00,2013-11-10 08:17:00,
2013-11-10 03:22:00,46.7,27.0,30.26,SSE,161,0.0,1.0,46,0.00,,---,0.00,VWS V14.00,2013-11-10 08:22:00,
2013-11-10 03:27:00,46.7,26.0,30.26,SSE,160,0.0,1.0,44,0.00,,---,0.00,VWS V14.00,2013-11-10 08:27:00,
2013-11-10 03:32:00,46.8,26.0,30.26,SSE,161,0.0,1.0,44,0.00,,---,0.00,VWS V14.00,2013-11-10 08:32:00,
2013-11-10 03:37:00,46.9,26.1,30.26,SSE,159,1.0,1.0,44,0.00,,---,0.00,VWS V14.00,2013-11-10 08:37:00,
2013-11-10 03:42:00,47.0,25.7,30.26,SSE,159,0.0,2.0,43,0.00,,---,0.00,VWS V14.00,2013-11-10 08:42:00,
2013-11-10 03:47:00,47.2,26.4,30.27,SSE,159,0.0,3.0,44,0.00,,---,0.00,VWS V14.00,2013-11-10 08:47:00,
2013-11-10 03:52:00,47.4,27.1,30.27,SSE,159,0.0,3.0,45,0.00,,---,0.00,VWS V14.00,2013-11-10 08:52:00,
2013-11-10 03:57:00,47.4,27.1,30.26,SSE,159,3.0,3.0,45,0.00,,---,0.00,VWS V14.00,2013-11-10 08:57:00,
2013-11-10 04:02:00,47.5,27.2,30.26,SSE,161,0.0,3.0,45,0.00,,---,0.00,VWS V14.00,2013-11-10 09:02:00,
2013-11-10 04:07:00,47.6,27.3,30.26,SSE,161,0.0,3.0,45,0.00,,---,0.00,VWS V14.00,2013-11-10 09:07:00,
2013-11-10 04:12:00,47.7,28.0,30.26,SSE,167,0.0,0.0,46,0.00,,---,0.00,VWS V14.00,2013-11-10 09:12:00,
2013-11-10 04:17:00,47.8,28.0,30.26,SSE,167,0.0,2.0,46,0.00,,---,0.00,VWS V14.00,2013-11-10 09:17:00,
2013-11-10 04:22:00,47.8,28.6,30.26,SW,217,0.0,2.0,47,0.00,,---,0.00,VWS V14.00,2013-11-10 09:22:00,
2013-11-10 04:27:00,47.9,28.7,30.26,SW,216,0.0,2.0,47,0.00,,---,0.00,VWS V14.00,2013-11-10 09:27:00,
2013-11-10 04:32:00,47.9,29.2,30.26,SSW,211,0.0,2.0,48,0.00,,---,0.00,VWS V14.00,2013-11-10 09:32:00,
2013-11-10 04:37:00,47.8,29.1,30.26,South,180,0.0,4.0,48,0.00,,---,0.00,VWS V14.00,2013-11-10 09:37:00,
2013-11-10 04:42:00,47.8,29.6,30.26,South,175,0.0,3.0,49,0.00,,---,0.00,VWS V14.00,2013-11-10 09:42:00,
2013-11-10 04:47:00,47.6,29.4,30.26,South,175,0.0,3.0,49,0.00,,---,0.00,VWS V14.00,2013-11-10 09:47:00,
2013-11-10 04:52:00,47.3,29.6,30.26,South,175,0.0,3.0,50,0.00,,---,0.00,VWS V14.00,2013-11-10 09:52:00,
2013-11-10 04:57:00,47.1,29.4,30.26,South,175,0.0,3.0,50,0.00,,---,0.00,VWS V14.00,2013-11-10 09:57:00,
2013-11-10 05:02:00,46.9,29.7,30.27,South,175,0.0,3.0,51,0.00,,---,0.00,VWS V14.00,2013-11-10 10:02:00,
2013-11-10 05:07:00,46.7,30.0,30.27,South,175,0.0,3.0,52,0.00,,---,0.00,VWS V14.00,2013-11-10 10:07:00,
2013-11-10 05:12:00,46.4,29.8,30.28,South,175,0.0,2.0,52,0.00,,---,0.00,VWS V14.00,2013-11-10 10:12:00,
2013-11-10 05:17:00,46.1,30.4,30.28,South,175,0.0,2.0,54,0.00,,---,0.00,VWS V14.00,2013-11-10 10:17:00,
2013-11-10 05:22:00,45.9,29.3,30.28,South,175,0.0,2.0,52,0.00,,---,0.00,VWS V14.00,2013-11-10 10:22:00,
2013-11-10 05:27:00,45.7,28.6,30.28,South,175,0.0,2.0,51,0.00,,---,0.00,VWS V14.00,2013-11-10 10:27:00,
2013-11-10 05:32:00,45.6,27.6,30.28,South,175,0.0,2.0,49,0.00,,---,0.00,VWS V14.00,2013-11-10 10:32:00,
2013-11-10 05:36:00,45.6,29.9,30.28,South,175,0.0,2.0,54,0.00,,---,0.00,VWS V14.00,2013-11-10 10:36:00,
2013-11-10 05:41:00,45.5,28.0,30.29,South,175,0.0,1.0,50,0.00,,---,0.00,VWS V14.00,2013-11-10 10:41:00,
2013-11-10 05:46:00,45.5,28.4,30.29,South,175,0.0,1.0,51,0.00,,---,0.00,VWS V14.00,2013-11-10 10:46:00,
2013-11-10 05:51:00,45.6,29.9,30.29,South,175,0.0,1.0,54,0.00,,---,0.00,VWS V14.00,2013-11-10 10:51:00,
2013-11-10 05:56:00,45.7,30.5,30.29,South,175,0.0,1.0,55,0.00,,---,0.00,VWS V14.00,2013-11-10 10:56:00,
2013-11-10 06:01:00,45.8,30.6,30.29,South,175,1.0,1.0,55,0.00,,---,0.00,VWS V14.00,2013-11-10 11:01:00,
2013-11-10 06:06:00,45.8,30.6,30.29,South,186,0.0,1.0,55,0.00,,---,0.00,VWS V14.00,2013-11-10 11:06:00,
2013-11-10 06:11:00,45.8,30.1,30.29,SSW,203,0.0,1.0,54,0.00,,---,0.00,VWS V14.00,2013-11-10 11:11:00,
2013-11-10 06:16:00,45.8,30.6,30.29,SSW,204,0.0,1.0,55,0.00,,---,0.00,VWS V14.00,2013-11-10 11:16:00,
2013-11-10 06:21:00,45.8,30.6,30.29,SSW,203,0.0,1.0,55,0.00,,---,0.00,VWS V14.00,2013-11-10 11:21:00,
2013-11-10 06:26:00,45.7,30.5,30.29,SSW,204,0.0,1.0,55,0.00,,---,0.00,VWS V14.00,2013-11-10 11:26:00,
2013-11-10 06:31:00,45.6,29.9,30.29,WSW,238,0.0,3.0,54,0.00,,---,0.00,VWS V14.00,2013-11-10 11:31:00,
2013-11-10 06:36:00,45.5,30.3,30.29,WSW,237,0.0,3.0,55,0.00,,---,0.00,VWS V14.00,2013-11-10 11:36:00,
2013-11-10 06:41:00,45.4,30.6,30.30,WSW,238,0.0,1.0,56,0.00,,---,0.00,VWS V14.00,2013-11-10 11:41:00,
2013-11-10 06:46:00,45.4,30.6,30.30,WSW,237,0.0,1.0,56,0.00,,---,0.00,VWS V14.00,2013-11-10 11:46:00,
2013-11-10 06:51:00,45.3,31.0,30.30,WSW,237,0.0,1.0,57,0.00,,---,0.00,VWS V14.00,2013-11-10 11:51:00,
2013-11-10 06:56:00,45.4,31.1,30.30,WSW,237,0.0,1.0,57,0.00,,---,0.00,VWS V14.00,2013-11-10 11:56:00,
2013-11-10 07:01:00,45.4,31.1,30.30,WSW,238,0.0,1.0,57,0.00,,---,0.00,VWS V14.00,2013-11-10 12:01:00,
2013-11-10 07:06:00,45.4,31.5,30.30,WSW,238,0.0,1.0,58,0.00,,---,0.00,VWS V14.00,2013-11-10 12:06:00,
2013-11-10 07:11:00,45.4,32.3,30.30,WSW,237,0.0,0.0,60,0.00,,---,0.00,VWS V14.00,2013-11-10 12:11:00,
2013-11-10 07:16:00,45.4,32.8,30.30,WSW,238,0.0,0.0,61,0.00,,---,0.00,VWS V14.00,2013-11-10 12:16:00,
2013-11-10 07:21:00,45.3,33.5,30.30,WSW,238,0.0,0.0,63,0.00,,---,0.00,VWS V14.00,2013-11-10 12:21:00,
2013-11-10 07:26:00,45.0,32.0,30.31,WSW,237,0.0,0.0,60,0.00,,---,0.00,VWS V14.00,2013-11-10 12:26:00,
2013-11-10 07:31:00,44.9,31.0,30.31,WSW,237,0.0,0.0,58,0.00,,---,0.00,VWS V14.00,2013-11-10 12:31:00,
2013-11-10 07:36:00,44.6,30.8,30.31,WSW,238,0.0,0.0,58,0.00,,---,0.00,VWS V14.00,2013-11-10 12:36:00,
2013-11-10 07:40:00,44.5,30.2,30.31,WSW,238,0.0,0.0,57,0.00,,---,0.00,VWS V14.00,2013-11-10 12:40:00,
2013-11-10 07:45:00,44.3,30.0,30.31,WSW,238,0.0,0.0,57,0.00,,---,0.00,VWS V14.00,2013-11-10 12:45:00,
2013-11-10 07:50:00,44.3,30.0,30.31,WSW,238,0.0,0.0,57,0.00,,---,0.00,VWS V14.00,2013-11-10 12:50:00,
2013-11-10 07:55:00,44.2,30.4,30.31,WSW,238,0.0,0.0,58,0.00,,---,0.00,VWS V14.00,2013-11-10 12:55:00,
2013-11-10 08:01:00,44.4,30.6,30.31,WSW,238,0.0,0.0,58,0.00,,---,0.00,VWS V14.00,2013-11-10 13:01:00,
2013-11-10 08:06:00,44.7,32.1,30.31,WSW,237,0.0,0.0,61,0.00,,---,0.00,VWS V14.00,2013-11-10 13:06:00,
2013-11-10 08:11:00,45.1,30.8,30.32,WSW,238,0.0,0.0,57,0.00,,---,0.00,VWS V14.00,2013-11-10 13:11:00,
2013-11-10 08:15:00,46.0,31.6,30.32,WSW,237,0.0,0.0,57,0.00,,---,0.00,VWS V14.00,2013-11-10 13:15:00,
2013-11-10 08:20:00,46.8,31.5,30.32,WSW,238,0.0,0.0,55,0.00,,---,0.00,VWS V14.00,2013-11-10 13:20:00,
2013-11-10 08:26:00,47.5,31.7,30.32,WSW,237,0.0,1.0,54,0.00,,---,0.00,VWS V14.00,2013-11-10 13:26:00,
2013-11-10 08:31:00,48.3,32.0,30.32,WSW,238,0.0,1.0,53,0.00,,---,0.00,VWS V14.00,2013-11-10 13:31:00,
2013-11-10 08:35:00,49.0,32.6,30.31,WSW,238,0.0,1.0,53,0.00,,---,0.00,VWS V14.00,2013-11-10 13:35:00,
2013-11-10 08:40:00,49.7,34.2,30.32,SW,219,0.0,0.0,55,0.00,,---,0.00,VWS V14.00,2013-11-10 13:40:00,
2013-11-10 08:46:00,50.2,33.3,30.32,SW,219,0.0,0.0,52,0.00,,---,0.00,VWS V14.00,2013-11-10 13:46:00,
2013-11-10 08:50:00,50.5,33.5,30.31,SW,219,0.0,1.0,52,0.00,,---,0.00,VWS V14.00,2013-11-10 13:50:00,
2013-11-10 08:55:00,50.9,33.9,30.31,SW,219,0.0,1.0,52,0.00,,---,0.00,VWS V14.00,2013-11-10 13:55:00,
2013-11-10 09:00:00,51.2,33.7,30.32,SW,219,0.0,1.0,51,0.00,,---,0.00,VWS V14.00,2013-11-10 14:00:00,
2013-11-10 09:05:00,51.5,35.0,30.31,SW,219,0.0,1.0,53,0.00,,---,0.00,VWS V14.00,2013-11-10 14:05:00,
2013-11-10 09:10:00,51.8,35.2,30.32,SW,219,0.0,1.0,53,0.00,,---,0.00,VWS V14.00,2013-11-10 14:10:00,
2013-11-10 09:15:00,52.1,35.0,30.31,SW,219,0.0,1.0,52,0.00,,---,0.00,VWS V14.00,2013-11-10 14:15:00,
2013-11-10 09:20:00,52.3,35.2,30.32,SW,219,0.0,1.0,52,0.00,,---,0.00,VWS V14.00,2013-11-10 14:20:00,
2013-11-10 09:25:00,52.8,36.2,30.31,SW,219,0.0,1.0,53,0.00,,---,0.00,VWS V14.00,2013-11-10 14:25:00,
2013-11-10 09:30:00,53.1,36.4,30.31,SW,219,0.0,1.0,53,0.00,,---,0.00,VWS V14.00,2013-11-10 14:30:00,
2013-11-10 09:35:00,53.6,37.4,30.31,SW,219,0.0,1.0,54,0.00,,---,0.00,VWS V14.00,2013-11-10 14:35:00,
2013-11-10 09:40:00,54.2,37.9,30.31,SW,219,0.0,2.0,54,0.00,,---,0.00,VWS V14.00,2013-11-10 14:40:00,
2013-11-10 09:45:00,54.7,37.9,30.30,SW,219,2.0,3.0,53,0.00,,---,0.00,VWS V14.00,2013-11-10 14:45:00,
2013-11-10 09:50:00,54.9,38.6,30.30,SW,218,0.0,3.0,54,0.00,,---,0.00,VWS V14.00,2013-11-10 14:50:00,
2013-11-10 09:55:00,55.4,39.5,30.30,SE,145,0.0,3.0,55,0.00,,---,0.00,VWS V14.00,2013-11-10 14:55:00,
2013-11-10 10:00:00,55.9,39.5,30.30,SE,145,0.0,3.0,54,0.00,,---,0.00,VWS V14.00,2013-11-10 15:00:00,
2013-11-10 10:05:00,56.3,39.4,30.30,SSE,148,2.0,3.0,53,0.00,,---,0.00,VWS V14.00,2013-11-10 15:05:00,
2013-11-10 10:10:00,57.3,40.3,30.30,East,83,2.0,2.0,53,0.00,,---,0.00,VWS V14.00,2013-11-10 15:10:00,
2013-11-10 10:15:00,57.7,39.7,30.30,ESE,111,5.0,11.0,51,0.00,,---,0.00,VWS V14.00,2013-11-10 15:15:00,
2013-11-10 10:20:00,58.0,41.0,30.30,South,175,5.0,11.0,53,0.00,,---,0.00,VWS V14.00,2013-11-10 15:20:00,
2013-11-10 10:25:00,58.5,41.0,30.29,ESE,109,1.0,11.0,52,0.00,,---,0.00,VWS V14.00,2013-11-10 15:25:00,
2013-11-10 10:30:00,59.8,40.6,30.29,SSE,148,3.0,11.0,49,0.00,,---,0.00,VWS V14.00,2013-11-10 15:30:00,
2013-11-10 10:35:00,61.1,42.3,30.29,ENE,69,5.0,11.0,50,0.00,,---,0.00,VWS V14.00,2013-11-10 15:35:00,
2013-11-10 10:40:00,61.8,41.4,30.28,East,79,3.0,6.0,47,0.00,,---,0.00,VWS V14.00,2013-11-10 15:40:00,
2013-11-10 10:45:00,62.3,41.3,30.28,SSE,150,2.0,6.0,46,0.00,,---,0.00,VWS V14.00,2013-11-10 15:45:00,
2013-11-10 10:50:00,61.7,39.6,30.28,SE,146,3.0,10.0,44,0.00,,---,0.00,VWS V14.00,2013-11-10 15:50:00,
2013-11-10 10:55:00,61.1,39.6,30.29,West,264,0.0,10.0,45,0.00,,---,0.00,VWS V14.00,2013-11-10 15:55:00,
2013-11-10 11:00:00,61.3,40.4,30.29,SSE,161,2.0,10.0,46,0.00,,---,0.00,VWS V14.00,2013-11-10 16:00:00,
2013-11-10 11:05:00,61.3,39.2,30.29,SE,129,3.0,10.0,44,0.00,,---,0.00,VWS V14.00,2013-11-10 16:05:00,
2013-11-10 11:10:00,61.1,40.7,30.29,SE,134,2.0,9.0,47,0.00,,---,0.00,VWS V14.00,2013-11-10 16:10:00,
2013-11-10 11:15:00,61.6,39.5,30.28,SE,138,3.0,9.0,44,0.00,,---,0.00,VWS V14.00,2013-11-10 16:15:00,
2013-11-10 11:20:00,62.2,39.5,30.28,SE,144,2.0,10.0,43,0.00,,---,0.00,VWS V14.00,2013-11-10 16:20:00,
2013-11-10 11:25:00,63.3,40.5,30.28,SE,137,6.0,10.0,43,0.00,,---,0.00,VWS V14.00,2013-11-10 16:25:00,
2013-11-10 11:30:00,63.5,40.6,30.28,SSE,156,2.0,10.0,43,0.00,,---,0.00,VWS V14.00,2013-11-10 16:30:00,
2013-11-10 11:35:00,63.9,39.1,30.27,SE,140,0.0,10.0,40,0.00,,---,0.00,VWS V14.00,2013-11-10 16:35:00,
2013-11-10 11:40:00,64.5,40.3,30.27,South,190,0.0,4.0,41,0.00,,---,0.00,VWS V14.00,2013-11-10 16:40:00,
2013-11-10 11:45:00,64.4,39.6,30.27,SE,126,0.0,10.0,40,0.00,,---,0.00,VWS V14.00,2013-11-10 16:45:00,
2013-11-10 11:50:00,64.5,38.3,30.27,ESE,117,5.0,10.0,38,0.00,,---,0.00,VWS V14.00,2013-11-10 16:50:00,
2013-11-10 11:55:00,65.1,39.5,30.26,ENE,76,4.0,11.0,39,0.00,,---,0.00,VWS V14.00,2013-11-10 16:55:00,
2013-11-10 12:00:00,64.9,37.3,30.26,East,98,2.0,11.0,36,0.00,,---,0.00,VWS V14.00,2013-11-10 17:00:00,
2013-11-10 12:05:00,65.3,37.7,30.26,South,172,2.0,11.0,36,0.00,,---,0.00,VWS V14.00,2013-11-10 17:05:00,
2013-11-10 12:10:00,65.4,37.8,30.26,South,179,4.0,7.0,36,0.00,,---,0.00,VWS V14.00,2013-11-10 17:10:00,
2013-11-10 12:15:00,65.4,37.1,30.26,ESE,117,4.0,11.0,35,0.00,,---,0.00,VWS V14.00,2013-11-10 17:15:00,
2013-11-10 12:20:00,65.4,39.2,30.25,ESE,109,1.0,14.0,38,0.00,,---,0.00,VWS V14.00,2013-11-10 17:20:00,
2013-11-10 12:25:00,65.6,37.2,30.25,ESE,110,7.0,14.0,35,0.00,,---,0.00,VWS V14.00,2013-11-10 17:25:00,
2013-11-10 12:30:00,64.3,36.8,30.25,SSW,200,2.0,14.0,36,0.00,,---,0.00,VWS V14.00,2013-11-10 17:30:00,
2013-11-10 12:35:00,64.2,36.7,30.25,SSE,151,5.0,14.0,36,0.00,,---,0.00,VWS V14.00,2013-11-10 17:35:00,
2013-11-10 12:40:00,64.6,39.1,30.24,ESE,106,2.0,6.0,39,0.00,,---,0.00,VWS V14.00,2013-11-10 17:40:00,
2013-11-10 12:45:00,65.6,37.2,30.24,ESE,112,2.0,12.0,35,0.00,,---,0.00,VWS V14.00,2013-11-10 17:45:00,
2013-11-10 12:50:00,66.8,38.3,30.23,SE,141,5.0,12.0,35,0.00,,---,0.00,VWS V14.00,2013-11-10 17:50:00,
2013-11-10 12:55:00,66.8,36.0,30.23,South,182,6.0,12.0,32,0.00,,---,0.00,VWS V14.00,2013-11-10 17:55:00,
2013-11-10 13:00:00,66.1,34.6,30.23,ESE,109,2.0,12.0,31,0.00,,---,0.00,VWS V14.00,2013-11-10 18:00:00,
2013-11-10 13:05:00,66.0,36.1,30.23,NE,54,5.0,12.0,33,0.00,,---,0.00,VWS V14.00,2013-11-10 18:05:00,
2013-11-10 13:10:00,66.1,36.2,30.22,ENE,61,5.0,10.0,33,0.00,,---,0.00,VWS V14.00,2013-11-10 18:10:00,
2013-11-10 13:15:00,66.7,35.9,30.22,SSE,159,0.0,10.0,32,0.00,,---,0.00,VWS V14.00,2013-11-10 18:15:00,
2013-11-10 13:20:00,66.8,36.0,30.22,ESE,115,6.0,10.0,32,0.00,,---,0.00,VWS V14.00,2013-11-10 18:20:00,
2013-11-10 13:25:00,66.8,37.6,30.22,East,88,3.0,10.0,34,0.00,,---,0.00,VWS V14.00,2013-11-10 18:25:00,
2013-11-10 13:30:00,66.7,35.9,30.22,ENE,57,0.0,10.0,32,0.00,,---,0.00,VWS V14.00,2013-11-10 18:30:00,
2013-11-10 13:35:00,67.0,37.0,30.22,East,98,4.0,10.0,33,0.00,,---,0.00,VWS V14.00,2013-11-10 18:35:00,
2013-11-10 13:40:00,66.9,37.7,30.22,ESE,112,2.0,6.0,34,0.00,,---,0.00,VWS V14.00,2013-11-10 18:40:00,
2013-11-10 13:45:00,66.5,35.0,30.22,SE,133,2.0,13.0,31,0.00,,---,0.00,VWS V14.00,2013-11-10 18:45:00,
2013-11-10 13:50:00,66.0,36.8,30.22,SE,130,2.0,13.0,34,0.00,,---,0.00,VWS V14.00,2013-11-10 18:50:00,
2013-11-10 13:55:00,66.1,36.9,30.21,ESE,123,2.0,13.0,34,0.00,,---,0.00,VWS V14.00,2013-11-10 18:55:00,
2013-11-10 14:00:00,66.9,37.7,30.22,SSE,149,5.0,13.0,34,0.00,,---,0.00,VWS V14.00,2013-11-10 19:00:00,
2013-11-10 14:05:00,66.3,34.8,30.22,SSE,150,4.0,13.0,31,0.00,,---,0.00,VWS V14.00,2013-11-10 19:05:00,
2013-11-10 14:10:00,65.9,36.0,30.22,ENE,68,6.0,6.0,33,0.00,,---,0.00,VWS V14.00,2013-11-10 19:10:00,
2013-11-10 14:15:00,66.4,36.5,30.22,SSE,159,5.0,9.0,33,0.00,,---,0.00,VWS V14.00,2013-11-10 19:15:00,
2013-11-10 14:20:00,66.8,36.0,30.22,SE,138,0.0,9.0,32,0.00,,---,0.00,VWS V14.00,2013-11-10 19:20:00,
2013-11-10 14:25:00,66.6,34.2,30.22,SE,144,4.0,9.0,30,0.00,,---,0.00,VWS V14.00,2013-11-10 19:25:00,
2013-11-10 14:30:00,65.8,33.5,30.22,SE,129,3.0,10.0,30,0.00,,---,0.00,VWS V14.00,2013-11-10 19:30:00,
2013-11-10 14:35:00,65.3,33.9,30.22,SSE,155,3.0,10.0,31,0.00,,---,0.00,VWS V14.00,2013-11-10 19:35:00,
2013-11-10 14:40:00,65.4,35.6,30.22,ESE,115,0.0,3.0,33,0.00,,---,0.00,VWS V14.00,2013-11-10 19:40:00,
2013-11-10 14:45:00,65.8,34.3,30.21,SSE,159,5.0,5.0,31,0.00,,---,0.00,VWS V14.00,2013-11-10 19:45:00,
2013-11-10 14:50:00,65.5,34.9,30.22,East,90,4.0,6.0,32,0.00,,---,0.00,VWS V14.00,2013-11-10 19:50:00,
2013-11-10 14:55:00,65.2,33.8,30.22,SSE,151,4.0,7.0,31,0.00,,---,0.00,VWS V14.00,2013-11-10 19:55:00,
2013-11-10 15:00:00,64.6,33.3,30.22,SW,234,2.0,9.0,31,0.00,,---,0.00,VWS V14.00,2013-11-10 20:00:00,
2013-11-10 15:05:00,64.2,33.8,30.22,SSE,168,3.0,9.0,32,0.00,,---,0.00,VWS V14.00,2013-11-10 20:05:00,
2013-11-10 15:10:00,64.0,33.6,30.21,South,172,3.0,5.0,32,0.00,,---,0.00,VWS V14.00,2013-11-10 20:10:00,
2013-11-10 15:15:00,63.6,34.0,30.21,North,11,0.0,9.0,33,0.00,,---,0.00,VWS V14.00,2013-11-10 20:15:00,
2013-11-10 15:20:00,63.4,34.6,30.21,ESE,113,3.0,9.0,34,0.00,,---,0.00,VWS V14.00,2013-11-10 20:20:00,
2013-11-10 15:25:00,63.6,35.5,30.21,SSE,161,0.0,9.0,35,0.00,,---,0.00,VWS V14.00,2013-11-10 20:25:00,
2013-11-10 15:30:00,63.5,34.7,30.21,ESE,123,1.0,12.0,34,0.00,,---,0.00,VWS V14.00,2013-11-10 20:30:00,
2013-11-10 15:35:00,63.3,34.5,30.21,SSE,165,4.0,12.0,34,0.00,,---,0.00,VWS V14.00,2013-11-10 20:35:00,
2013-11-10 15:40:00,62.8,34.8,30.21,SE,129,1.0,11.0,35,0.00,,---,0.00,VWS V14.00,2013-11-10 20:40:00,
2013-11-10 15:45:00,62.8,34.8,30.21,East,87,2.0,11.0,35,0.00,,---,0.00,VWS V14.00,2013-11-10 20:45:00,
2013-11-10 15:50:00,62.8,34.8,30.22,SSE,149,6.0,11.0,35,0.00,,---,0.00,VWS V14.00,2013-11-10 20:50:00,
2013-11-10 15:55:00,62.5,35.2,30.22,SSE,165,4.0,11.0,36,0.00,,---,0.00,VWS V14.00,2013-11-10 20:55:00,
2013-11-10 16:00:00,62.3,35.0,30.22,SE,140,0.0,11.0,36,0.00,,---,0.00,VWS V14.00,2013-11-10 21:00:00,
2013-11-10 16:05:00,61.9,34.7,30.22,SSE,160,3.0,14.0,36,0.00,,---,0.00,VWS V14.00,2013-11-10 21:05:00,
2013-11-10 16:10:00,61.4,34.2,30.23,ESE,104,3.0,3.0,36,0.00,,---,0.00,VWS V14.00,2013-11-10 21:10:00,
2013-11-10 16:15:00,61.3,35.5,30.23,SSE,163,1.0,5.0,38,0.00,,---,0.00,VWS V14.00,2013-11-10 21:15:00,
2013-11-10 16:20:00,61.0,34.6,30.23,SE,142,1.0,5.0,37,0.00,,---,0.00,VWS V14.00,2013-11-10 21:20:00,
2013-11-10 16:25:00,60.7,35.0,30.23,ESE,115,0.0,7.0,38,0.00,,---,0.00,VWS V14.00,2013-11-10 21:25:00,
2013-11-10 16:30:00,60.2,34.5,30.24,SE,138,2.0,7.0,38,0.00,,---,0.00,VWS V14.00,2013-11-10 21:30:00,
2013-11-10 16:35:00,59.8,34.8,30.24,South,171,0.0,7.0,39,0.00,,---,0.00,VWS V14.00,2013-11-10 21:35:00,
2013-11-10 16:40:00,59.6,35.3,30.24,SE,127,2.0,2.0,40,0.00,,---,0.00,VWS V14.00,2013-11-10 21:40:00,
2013-11-10 16:45:00,59.0,35.3,30.24,SSE,150,1.0,3.0,41,0.00,,---,0.00,VWS V14.00,2013-11-10 21:45:00,
2013-11-10 16:50:00,59.0,36.6,30.24,SSE,151,0.0,3.0,43,0.00,,---,0.00,VWS V14.00,2013-11-10 21:50:00,
2013-11-10 16:55:00,58.3,35.3,30.25,SSE,157,0.0,5.0,42,0.00,,---,0.00,VWS V14.00,2013-11-10 21:55:00,
2013-11-10 17:00:00,58.0,35.7,30.25,SSE,157,0.0,5.0,43,0.00,,---,0.00,VWS V14.00,2013-11-10 22:00:00,
2013-11-10 17:05:00,57.8,35.5,30.25,SSE,158,0.0,5.0,43,0.00,,---,0.00,VWS V14.00,2013-11-10 22:05:00,
2013-11-10 17:10:00,57.6,36.4,30.25,SSE,158,0.0,1.0,45,0.00,,---,0.00,VWS V14.00,2013-11-10 22:10:00,
2013-11-10 17:15:00,57.3,35.6,30.25,SSE,158,0.0,1.0,44,0.00,,---,0.00,VWS V14.00,2013-11-10 22:15:00,
2013-11-10 17:20:00,57.0,35.9,30.26,SSE,157,0.0,1.0,45,0.00,,---,0.00,VWS V14.00,2013-11-10 22:20:00,
2013-11-10 17:25:00,56.6,35.5,30.25,SSE,157,0.0,1.0,45,0.00,,---,0.00,VWS V14.00,2013-11-10 22:25:00,
2013-11-10 17:30:00,56.3,35.8,30.26,SSE,158,0.0,1.0,46,0.00,,---,0.00,VWS V14.00,2013-11-10 22:30:00,
2013-11-10 17:35:00,56.0,35.5,30.26,SSE,158,0.0,1.0,46,0.00,,---,0.00,VWS V14.00,2013-11-10 22:35:00,
2013-11-10 17:40:00,55.5,35.6,30.26,SSE,157,0.0,0.0,47,0.00,,---,0.00,VWS V14.00,2013-11-10 22:40:00,
2013-11-10 17:45:00,55.2,35.9,30.26,SSE,158,0.0,1.0,48,0.00,,---,0.00,VWS V14.00,2013-11-10 22:45:00,
2013-11-10 17:50:00,54.9,36.1,30.26,SSE,158,0.0,1.0,49,0.00,,---,0.00,VWS V14.00,2013-11-10 22:50:00,
2013-11-10 17:55:00,54.6,36.3,30.26,SSE,158,0.0,1.0,50,0.00,,---,0.00,VWS V14.00,2013-11-10 22:55:00,
2013-11-10 18:00:00,54.3,36.1,30.27,SSE,158,0.0,1.0,50,0.00,,---,0.00,VWS V14.00,2013-11-10 23:00:00,
2013-11-10 18:05:00,54.1,35.9,30.27,SSE,158,0.0,1.0,50,0.00,,---,0.00,VWS V14.00,2013-11-10 23:05:00,
2013-11-10 18:10:00,53.8,36.1,30.27,SSE,158,0.0,0.0,51,0.00,,---,0.00,VWS V14.00,2013-11-10 23:10:00,
2013-11-10 18:15:00,53.5,36.3,30.27,SSE,157,0.0,0.0,52,0.00,,---,0.00,VWS V14.00,2013-11-10 23:15:00,
2013-11-10 18:20:00,53.2,36.5,30.28,SSE,157,0.0,0.0,53,0.00,,---,0.00,VWS V14.00,2013-11-10 23:20:00,
2013-11-10 18:25:00,53.0,36.3,30.28,SSE,158,0.0,0.0,53,0.00,,---,0.00,VWS V14.00,2013-11-10 23:25:00,
2013-11-10 18:30:00,52.8,36.2,30.28,SSE,157,0.0,0.0,53,0.00,,---,0.00,VWS V14.00,2013-11-10 23:30:00,
2013-11-10 18:35:00,52.6,36.5,30.28,SSE,157,0.0,0.0,54,0.00,,---,0.00,VWS V14.00,2013-11-10 23:35:00,
2013-11-10 18:40:00,52.4,36.7,30.28,SSE,158,0.0,0.0,55,0.00,,---,0.00,VWS V14.00,2013-11-10 23:40:00,
2013-11-10 18:45:00,52.2,36.1,30.28,SSE,158,0.0,0.0,54,0.00,,---,0.00,VWS V14.00,2013-11-10 23:45:00,
2013-11-10 18:50:00,52.0,36.3,30.28,SSE,157,0.0,0.0,55,0.00,,---,0.00,VWS V14.00,2013-11-10 23:50:00,
2013-11-10 18:55:00,51.9,36.3,30.28,SSE,158,0.0,0.0,55,0.00,,---,0.00,VWS V14.00,2013-11-10 23:55:00,
2013-11-10 19:00:00,51.7,36.1,30.28,SSE,157,0.0,0.0,55,0.00,,---,0.00,VWS V14.00,2013-11-11 00:00:00,
2013-11-10 19:05:00,51.6,36.0,30.28,SSE,158,0.0,0.0,55,0.00,,---,0.00,VWS V14.00,2013-11-11 00:05:00,
2013-11-10 19:10:00,51.5,35.9,30.29,SSE,158,0.0,1.0,55,0.00,,---,0.00,VWS V14.00,2013-11-11 00:10:00,
2013-11-10 19:15:00,51.4,36.2,30.28,SSE,157,0.0,1.0,56,0.00,,---,0.00,VWS V14.00,2013-11-11 00:15:00,
2013-11-10 19:20:00,51.3,36.2,30.28,SSE,158,0.0,1.0,56,0.00,,---,0.00,VWS V14.00,2013-11-11 00:20:00,
2013-11-10 19:25:00,51.2,36.1,30.28,SSE,157,0.0,1.0,56,0.00,,---,0.00,VWS V14.00,2013-11-11 00:25:00,
2013-11-10 19:30:00,51.2,36.1,30.28,SSE,158,0.0,1.0,56,0.00,,---,0.00,VWS V14.00,2013-11-11 00:30:00,
2013-11-10 19:35:00,51.0,35.9,30.28,SW,233,1.0,2.0,56,0.00,,---,0.00,VWS V14.00,2013-11-11 00:35:00,
2013-11-10 19:40:00,51.0,35.9,30.28,SW,233,1.0,1.0,56,0.00,,---,0.00,VWS V14.00,2013-11-11 00:40:00,
2013-11-10 19:45:00,50.9,36.2,30.28,SW,233,0.0,2.0,57,0.00,,---,0.00,VWS V14.00,2013-11-11 00:45:00,
2013-11-10 19:50:00,50.8,35.7,30.28,SW,233,0.0,2.0,56,0.00,,---,0.00,VWS V14.00,2013-11-11 00:50:00,
2013-11-10 19:55:00,50.8,35.7,30.28,SW,233,0.0,2.0,56,0.00,,---,0.00,VWS V14.00,2013-11-11 00:55:00,
2013-11-10 20:00:00,50.8,35.7,30.28,SW,233,0.0,2.0,56,0.00,,---,0.00,VWS V14.00,2013-11-11 01:00:00,
2013-11-10 20:05:00,50.9,35.8,30.28,SW,227,0.0,3.0,56,0.00,,---,0.00,VWS V14.00,2013-11-11 01:05:00,
2013-11-10 20:10:00,50.8,35.7,30.26,SW,226,1.0,2.0,56,0.00,,---,0.00,VWS V14.00,2013-11-11 01:10:00,
2013-11-10 20:15:00,50.8,36.1,30.26,SW,226,0.0,2.0,57,0.00,,---,0.00,VWS V14.00,2013-11-11 01:15:00,
2013-11-10 20:20:00,50.8,36.1,30.26,SW,225,0.0,2.0,57,0.00,,---,0.00,VWS V14.00,2013-11-11 01:20:00,
2013-11-10 20:25:00,50.6,35.9,30.26,SSW,207,0.0,2.0,57,0.00,,---,0.00,VWS V14.00,2013-11-11 01:25:00,
2013-11-10 20:30:00,50.5,35.8,30.26,SSW,209,0.0,2.0,57,0.00,,---,0.00,VWS V14.00,2013-11-11 01:30:00,
2013-11-10 20:35:00,50.3,34.8,30.27,SSE,152,3.0,3.0,55,0.00,,---,0.00,VWS V14.00,2013-11-11 01:35:00,
2013-11-10 20:40:00,50.3,34.8,30.27,SSE,153,0.0,0.0,55,0.00,,---,0.00,VWS V14.00,2013-11-11 01:40:00,
2013-11-10 20:45:00,50.2,35.1,30.27,SSE,156,0.0,1.0,56,0.00,,---,0.00,VWS V14.00,2013-11-11 01:45:00,
2013-11-10 20:50:00,50.1,34.1,30.27,SSE,156,0.0,1.0,54,0.00,,---,0.00,VWS V14.00,2013-11-11 01:50:00,
2013-11-10 20:55:00,49.9,33.9,30.27,SSE,155,0.0,1.0,54,0.00,,---,0.00,VWS V14.00,2013-11-11 01:55:00,
2013-11-10 21:00:00,49.8,33.8,30.27,SSE,155,0.0,3.0,54,0.00,,---,0.00,VWS V14.00,2013-11-11 02:00:00,
2013-11-10 21:05:00,49.6,33.7,30.27,SSE,155,0.0,3.0,54,0.00,,---,0.00,VWS V14.00,2013-11-11 02:05:00,
2013-11-10 21:10:00,49.5,33.6,30.26,SSE,155,0.0,1.0,54,0.00,,---,0.00,VWS V14.00,2013-11-11 02:10:00,
2013-11-10 21:15:00,49.3,33.4,30.26,SSE,155,0.0,1.0,54,0.00,,---,0.00,VWS V14.00,2013-11-11 02:15:00,
2013-11-10 21:20:00,49.2,33.3,30.26,SSE,155,0.0,1.0,54,0.00,,---,0.00,VWS V14.00,2013-11-11 02:20:00,
2013-11-10 21:25:00,49.1,33.2,30.26,SW,227,1.0,3.0,54,0.00,,---,0.00,VWS V14.00,2013-11-11 02:25:00,
2013-11-10 21:30:00,48.8,33.4,30.26,SW,227,0.0,3.0,55,0.00,,---,0.00,VWS V14.00,2013-11-11 02:30:00,
2013-11-10 21:35:00,48.6,32.7,30.26,SW,227,0.0,3.0,54,0.00,,---,0.00,VWS V14.00,2013-11-11 02:35:00,
2013-11-10 21:40:00,48.5,32.6,30.27,SW,227,0.0,0.0,54,0.00,,---,0.00,VWS V14.00,2013-11-11 02:40:00,
2013-11-10 21:45:00,48.3,32.9,30.27,SW,227,1.0,2.0,55,0.00,,---,0.00,VWS V14.00,2013-11-11 02:45:00,
2013-11-10 21:50:00,48.1,32.3,30.27,SW,226,0.0,2.0,54,0.00,,---,0.00,VWS V14.00,2013-11-11 02:50:00,
2013-11-10 21:55:00,47.9,31.6,30.27,West,277,0.0,3.0,53,0.00,,---,0.00,VWS V14.00,2013-11-11 02:55:00,
2013-11-10 22:00:00,47.8,31.0,30.27,West,277,0.0,3.0,52,0.00,,---,0.00,VWS V14.00,2013-11-11 03:00:00,
2013-11-10 22:05:00,47.7,31.4,30.27,West,278,0.0,3.0,53,0.00,,---,0.00,VWS V14.00,2013-11-11 03:05:00,
2013-11-10 22:10:00,47.5,30.8,30.26,West,278,0.0,0.0,52,0.00,,---,0.00,VWS V14.00,2013-11-11 03:10:00,
2013-11-10 22:15:00,47.3,31.0,30.26,West,278,0.0,1.0,53,0.00,,---,0.00,VWS V14.00,2013-11-11 03:15:00,
2013-11-10 22:20:00,47.1,30.4,30.26,West,278,0.0,1.0,52,0.00,,---,0.00,VWS V14.00,2013-11-11 03:20:00,
2013-11-10 22:25:00,46.9,30.2,30.26,West,277,0.0,1.0,52,0.00,,---,0.00,VWS V14.00,2013-11-11 03:25:00,
2013-11-10 22:30:00,46.7,30.0,30.26,West,277,0.0,1.0,52,0.00,,---,0.00,VWS V14.00,2013-11-11 03:30:00,
2013-11-10 22:35:00,46.5,29.8,30.26,West,277,0.0,2.0,52,0.00,,---,0.00,VWS V14.00,2013-11-11 03:35:00,
2013-11-10 22:40:00,46.4,29.8,30.27,West,277,0.0,0.0,52,0.00,,---,0.00,VWS V14.00,2013-11-11 03:40:00,
2013-11-10 22:45:00,46.3,29.6,30.27,West,277,0.0,1.0,52,0.00,,---,0.00,VWS V14.00,2013-11-11 03:45:00,
2013-11-10 22:50:00,46.1,29.5,30.27,West,277,0.0,1.0,52,0.00,,---,0.00,VWS V14.00,2013-11-11 03:50:00,
2013-11-10 22:55:00,46.0,29.4,30.27,West,277,0.0,1.0,52,0.00,,---,0.00,VWS V14.00,2013-11-11 03:55:00,
2013-11-10 23:00:00,45.9,29.3,30.27,West,277,0.0,1.0,52,0.00,,---,0.00,VWS V14.00,2013-11-11 04:00:00,
2013-11-10 23:05:00,45.8,29.2,30.27,West,277,0.0,1.0,52,0.00,,---,0.00,VWS V14.00,2013-11-11 04:05:00,
2013-11-10 23:10:00,45.7,29.1,30.26,West,277,0.0,0.0,52,0.00,,---,0.00,VWS V14.00,2013-11-11 04:10:00,
2013-11-10 23:15:00,45.5,28.9,30.25,West,277,0.0,2.0,52,0.00,,---,0.00,VWS V14.00,2013-11-11 04:15:00,
2013-11-10 23:20:00,45.4,28.8,30.25,SW,227,0.0,2.0,52,0.00,,---,0.00,VWS V14.00,2013-11-11 04:20:00,
2013-11-10 23:25:00,45.2,29.1,30.25,SW,227,0.0,2.0,53,0.00,,---,0.00,VWS V14.00,2013-11-11 04:25:00,
2013-11-10 23:30:00,45.1,28.5,30.25,South,182,0.0,5.0,52,0.00,,---,0.00,VWS V14.00,2013-11-11 04:30:00,
2013-11-10 23:35:00,45.0,28.5,30.25,South,182,0.0,5.0,52,0.00,,---,0.00,VWS V14.00,2013-11-11 04:35:00,
2013-11-10 23:40:00,44.9,28.4,30.25,South,182,0.0,1.0,52,0.00,,---,0.00,VWS V14.00,2013-11-11 04:40:00,
2013-11-10 23:45:00,44.8,27.8,30.25,South,183,0.0,3.0,51,0.00,,---,0.00,VWS V14.00,2013-11-11 04:45:00,
2013-11-10 23:50:00,44.7,27.2,30.25,WSW,238,0.0,3.0,50,0.00,,---,0.00,VWS V14.00,2013-11-11 04:50:00,
2013-11-10 23:55:00,44.8,27.8,30.25,WSW,238,0.0,3.0,51,0.00,,---,0.00,VWS V14.00,2013-11-11 04:55:00,